Weather History for Kalispell, MT

Change the Weather History Date:

Wednesday, December 12, 2012

  Actual Average Record
Temperature  
Mean Temperature 31 °F 23 °F  
Max Temperature 35 °F 30 °F 57 °F (1921)
Min Temperature 27 °F 16 °F -18 °F (1919)
Degree Days  
Heating Degree Days 34 42  
Month to date heating degree days 395 488  
Since 1 July heating degree days 2375 2692  
Cooling Degree Days 0 0  
Month to date cooling degree days 0 0  
Year to date cooling degree days 192 147  
Moisture  
Dew Point 32 °F    
Average Humidity 96    
Maximum Humidity 100    
Minimum Humidity 92    
Precipitation  
Precipitation 0.15 in 0.05 in 0.63 in (2010)
Month to date precipitation 0.88 0.58  
Year to date precipitation 20.02 16.01  
Snow  
Snow 0.50 in - - ()
Month to date snowfall 3.3  
Year to date snowfall 30.7  
Since 1 July snowfall 5.6  
Snow Depth 1.00 in    
Sea Level Pressure  
Sea Level Pressure 29.69 in    
Wind  
Wind Speed 1 mph (SW)    
Max Wind Speed 8 mph    
Max Gust Speed 8 mph    
Visibility 4 miles    
Events Fog , Rain , Snow    
T = Trace of Precipitation, MM = Missing Value Source: NWS Daily Summary

Daily Weather History Graph

Daily Weather History Graph

Search for Another Location

Airport:

Trip Planner

Search our weather history database for the weather conditions in past years. The results will help you decide how hot, cold, wet, or windy it might be!

Date:

Astronomy

Dec. 12, 2012 Rise Set
Actual Time 8:19 AM MST 4:42 PM MST
Civil Twilight 7:42 AM MST 5:19 PM MST
Nautical Twilight 7:03 AM MST 5:59 PM MST
Astronomical Twilight 6:25 AM MST 6:37 PM MST
Moon 7:26 AM MST (12/12) 4:25 PM MST (12/12)
Length of Visible Light 9h 36m
Length of Day
8h 23m
Waning Crescent, 0% of the Moon is Illuminated
Dec 12
Waning Crescent
Dec 13
New
Dec 19
First Quarter
Dec 28
Full
Jan 4
Last Quarter

Hourly Weather History & Observations

Time (MST) Temp. Windchill Dew Point Humidity Pressure Visibility Wind Dir Wind Speed Gust Speed Precip Events Conditions
12:55 AM 34.0 °F 31.0 °F 33.1 °F 96% 29.58 in 10.0 mi SSW 3.5 mph - N/A   Overcast
1:55 AM 34.0 °F - 33.1 °F 96% 29.57 in 10.0 mi Calm Calm - N/A   Overcast
2:02 AM 33.8 °F 30.8 °F 32.0 °F 93% 29.52 in 10.0 mi WSW 3.5 mph - N/A   Overcast
2:12 AM 33.8 °F 30.8 °F 33.8 °F 100% 29.52 in 10.0 mi SW 3.5 mph - 0.00 in Rain Light Rain
2:55 AM 33.1 °F - 33.1 °F 100% 29.59 in 10.0 mi Calm Calm - 0.00 in   Overcast
3:27 AM 33.8 °F - 33.8 °F 100% 29.53 in 10.0 mi Calm Calm - 0.00 in Rain Light Rain
3:55 AM 33.1 °F - 32.0 °F 96% 29.58 in 10.0 mi Calm Calm - 0.00 in   Overcast
4:55 AM 33.1 °F - 32.0 °F 96% 29.58 in 2.5 mi Calm Calm - 0.01 in Snow Light Snow
5:08 AM 33.8 °F - 32.0 °F 93% 29.52 in 3.0 mi Calm Calm - 0.00 in Snow Light Snow
5:25 AM 33.8 °F - 32.0 °F 93% 29.52 in 4.0 mi Calm Calm - 0.00 in Snow Light Snow
5:50 AM 32.0 °F - 32.0 °F 100% 29.53 in 2.0 mi Calm Calm - 0.01 in Snow Light Snow
5:55 AM 33.1 °F - 32.0 °F 96% 29.59 in 1.8 mi Calm Calm - 0.01 in Snow Light Snow
6:15 AM 32.0 °F - 32.0 °F 100% 29.53 in 1.2 mi Calm Calm - 0.01 in Snow Light Snow
6:55 AM 32.0 °F - 32.0 °F 100% 29.61 in 1.0 mi Calm Calm - 0.05 in Snow Light Snow
7:17 AM 32.0 °F - 32.0 °F 100% 29.55 in 1.5 mi Calm Calm - 0.01 in Snow Light Snow
7:26 AM 32.0 °F - 32.0 °F 100% 29.55 in 2.0 mi Calm Calm - 0.02 in Snow Light Snow
7:50 AM 32.0 °F - 32.0 °F 100% 29.56 in 1.8 mi Calm Calm - 0.02 in Snow Light Snow
7:55 AM 32.0 °F - 32.0 °F 100% 29.62 in 0.5 mi Calm Calm - 0.02 in Fog , Snow Light Snow
8:55 AM 32.0 °F - 32.0 °F 100% 29.65 in 0.5 mi Calm Calm - 0.02 in Fog , Snow Light Snow
9:02 AM 32.0 °F - 32.0 °F 100% 29.58 in 0.5 mi Calm Calm - 0.01 in Fog , Snow Snow
9:09 AM 32.0 °F - 32.0 °F 100% 29.59 in 0.5 mi Calm Calm - 0.01 in Fog , Snow Light Snow
9:22 AM 32.0 °F - 32.0 °F 100% 29.59 in 0.5 mi Calm Calm - 0.02 in Fog , Snow Light Snow
9:55 AM 33.1 °F - 32.0 °F 96% 29.67 in 0.5 mi Calm Calm - 0.03 in Fog , Snow Light Snow
10:09 AM 33.8 °F - 32.0 °F 93% 29.62 in 1.5 mi Calm Calm - 0.00 in Snow Light Snow
10:21 AM 33.8 °F - 33.8 °F 100% 29.62 in 2.0 mi Calm Calm - 0.00 in   Overcast
10:36 AM 33.8 °F - 32.0 °F 93% 29.63 in 3.0 mi Calm Calm - 0.00 in   Overcast
10:55 AM 33.1 °F - 32.0 °F 96% 29.70 in 4.0 mi Calm Calm - 0.00 in   Overcast
11:52 AM 33.8 °F - 33.8 °F 100% 29.64 in 1.0 mi Calm Calm - 0.00 in Snow Light Snow
11:55 AM 34.0 °F - 33.1 °F 96% 29.71 in 1.0 mi Calm Calm - 0.00 in Snow Light Snow
12:41 PM 33.8 °F - 33.8 °F 100% 29.65 in 1.0 mi Calm Calm - 0.00 in   Overcast
12:55 PM 35.1 °F - 33.1 °F 92% 29.72 in 1.0 mi Calm Calm - 0.00 in   Overcast
12:58 PM 35.6 °F - 33.8 °F 93% 29.66 in 6.0 mi Calm Calm - N/A   Overcast
1:05 PM 35.6 °F - 33.8 °F 93% 29.66 in 2.0 mi Calm Calm - N/A   Overcast
1:12 PM 35.6 °F - 33.8 °F 93% 29.66 in 2.0 mi Calm Calm - N/A   Overcast
1:43 PM 33.8 °F - 33.8 °F 100% 29.66 in 2.0 mi Calm Calm - 0.00 in Snow Light Snow
1:55 PM 35.1 °F - 33.1 °F 92% 29.73 in 2.0 mi Calm Calm - 0.00 in Snow Light Snow
2:28 PM 33.8 °F - 33.8 °F 100% 29.68 in 2.0 mi Calm Calm - 0.01 in Snow Light Snow
2:38 PM 33.8 °F - 33.8 °F 100% 29.68 in 2.0 mi Calm Calm - 0.01 in   Overcast
2:55 PM 34.0 °F - 33.1 °F 96% 29.75 in 2.0 mi Calm Calm - 0.01 in   Overcast
3:22 PM 33.8 °F - 33.8 °F 100% 29.70 in 2.0 mi Calm Calm - N/A   Overcast
3:55 PM 34.0 °F - 33.1 °F 96% 29.77 in 2.0 mi Calm Calm - 0.00 in   Overcast
4:02 PM 33.8 °F - 33.8 °F 100% 29.71 in 8.0 mi Calm Calm - N/A   Overcast
4:55 PM 34.0 °F 31.0 °F 33.1 °F 96% 29.79 in 6.0 mi WSW 3.5 mph - N/A   Overcast
5:15 PM 33.8 °F 30.8 °F 33.8 °F 100% 29.73 in 10.0 mi West 3.5 mph - N/A   Overcast
5:55 PM 33.1 °F 28.7 °F 32.0 °F 96% 29.82 in 10.0 mi West 4.6 mph - N/A   Overcast
6:55 PM 33.1 °F - 32.0 °F 96% 29.83 in 8.0 mi Calm Calm - 0.00 in Snow Light Snow
7:24 PM 33.8 °F - 32.0 °F 93% 29.77 in 9.0 mi Calm Calm - 0.00 in Snow Light Snow
7:55 PM 32.0 °F 28.7 °F 30.9 °F 96% 29.85 in 9.0 mi South 3.5 mph - 0.00 in Snow Light Snow
8:48 PM 30.2 °F 22.6 °F 28.4 °F 93% 29.79 in 1.8 mi SSE 8.1 mph - 0.00 in   Scattered Clouds
8:53 PM 30.2 °F 23.4 °F 30.2 °F 100% 29.79 in 3.0 mi SSE 6.9 mph - 0.00 in   Scattered Clouds
8:55 PM 30.0 °F 22.4 °F 30.0 °F 100% 29.87 in 5.0 mi South 8.1 mph - 0.00 in   Scattered Clouds
9:08 PM 30.2 °F - 30.2 °F 100% 29.80 in 3.0 mi Calm Calm - N/A   Scattered Clouds
9:11 PM 30.2 °F 26.7 °F 30.2 °F 100% 29.80 in 2.0 mi West 3.5 mph - N/A   Mostly Cloudy
9:23 PM 28.4 °F 24.6 °F 28.4 °F 100% 29.80 in 3.0 mi West 3.5 mph - N/A   Mostly Cloudy
9:48 PM 28.4 °F 23.3 °F 28.4 °F 100% 29.81 in 1.5 mi South 4.6 mph - N/A   Mostly Cloudy
9:51 PM 28.4 °F 23.3 °F 28.4 °F 100% 29.81 in 0.8 mi South 4.6 mph - N/A   Overcast
9:55 PM 28.9 °F 23.9 °F 28.0 °F 96% 29.89 in 0.5 mi South 4.6 mph - N/A Fog Light Freezing Fog
10:24 PM 28.4 °F 24.6 °F 26.6 °F 93% 29.82 in 1.5 mi WSW 3.5 mph - N/A   Overcast
10:26 PM 28.4 °F - 26.6 °F 93% 29.82 in 3.0 mi Calm Calm - N/A   Overcast
10:42 PM 26.6 °F 21.2 °F 26.6 °F 100% 29.83 in 10.0 mi NW 4.6 mph - N/A   Overcast
10:55 PM 27.0 °F - 27.0 °F 100% 29.91 in 6.0 mi Calm Calm - N/A   Overcast
11:55 PM 28.0 °F - 27.0 °F 96% 29.92 in 10.0 mi Calm Calm - N/A   Overcast